Showing default

ORBCOMM FM 106, 40088

Orbit data source: Space-Track

ORBCOMM FM 106, 40088 is a payload satellite owned by Orbcomm (US) in LEO that was launched on Mon, 14 Jul 2014 UTC via an FALCON 9 launch vehicle from the Air Force Eastern Test Range (AFETR). Payload-class satellites include a variety of spacecraft equipped with specific instruments for various scientific and technological missions. These include communications satellites like Starlink; space stations such as the ISS; scientific satellites like the Hubble; Earth observation satellites from companies like Planet Labs, Umbra, and HawkEye 360; GPS; miniature CubeSats for education and research; and military/defense satellites.

Loading next visibility...
Identifier
40088, 2014-040C
Orbit
LEO
Last TLE update
13 hours ago
Origin
Manufacturer
SNC Louisville
Mission
Non-operational Commercial Communications
Bus & Motor
SN-100A, Unknown motor
Mass
172 kg wet, 158 kg dry
Launch date (UTC)
2014-07-14 (11 years ago)
Launch vehicle
FALCON 9
Launch site
Air Force Eastern Test Range (AFETR)
Object type
Payload
Rocket body
Debris
Shape & HBR
Box + 1 Pan + 1 Ant, 13 m
Radar Cross Section
2.222 m², Medium (>0.1 m² and < 1m²)

Expand to show TLE details & history

TLE from 13 hours ago
0 ORBCOMM FM 106
1 40088U 14040C   25181.89827757  .00000533  00000-0  12057-3 0  9998
2 40088  47.0594 133.5009 0016096 131.2043 229.0238 14.69464767585499
Epoch: 2025-06-30T21:33Z
TLE epoch observation values (Epoch: 2025-06-30T21:33:31.182Z)
Latitude
-0.00002°
Longitude
-109.08053°
Altitude
670.441 km
Speed
7.519 km/s
True Right ascension
08h 54m 00s
True Declination
0° 00' 00"
Sunlit
Object was in daylight at epoch
Visualization orbit readout
Latitude
-40.56513°
Longitude
120.81637°
Altitude
679.142 km
Speed
7.515 km/s
Apparent Right ascension
04h 27m 45s
Apparent Declination
-68° 51' 14"
Sunlit
Object is in daylight
Visualization observer readout
Local Sidereal Time
21:43:03
Azimuth
152.173° SSE
Elevation
-40.699°
Doppler factor
1
Orbital elements
Apogee altitude
675.344 km
Perigee altitude
652.674 km
Semi-major axis
7,042.146 km
Eccentricity
0.00161
Inclination
47.0594°
RAAN
133.5009°
Arg. of periapsis
131.2043°
True anomaly
Unknown
Mean anomaly
229.0238°
Eccentric anomaly
Unknown
Mean motion
3.6727 °/min
Orbital period
98.02 mins
BSTAR
0.00012057
Loading maneuver chart data...
Loading SW <> Apogee altitude chart data...
Loading historical data...
Loading historical data...
Loading historical data...
Loading historical data...
Loading historical data...
Loading historical data...
Loading historical data...

ORBCOMM FM 106 Visibility forecast

Observer location: undefined°, undefined°

Span
Click to sort rows by Start time (UTC) header in descending order
Start Az.
Max El. time (UTC)
Max El. Az.
Max El.
End time (UTC)
End Az.
4 mins2025-07-01 22:11:39.643Z159.62° S2025-07-01 22:13:39.643Z133.088° SE14.117°2025-07-01 22:15:39.643Z106.322° ESE
7 mins2025-07-01 23:52:39.643Z227.518° WSW2025-07-01 23:55:39.643Z157.807° S43.255°2025-07-01 23:59:39.643Z66.08° ENE
7 mins2025-07-02 01:35:39.643Z283.484° WNW2025-07-02 01:38:39.643Z345.959° N33.816°2025-07-02 01:42:39.643Z55.388° ENE
6 mins2025-07-02 03:19:39.643Z314.871° NW2025-07-02 03:21:39.643Z354.423° N29.811°2025-07-02 03:25:39.643Z68.832° E
8 mins2025-07-02 05:01:39.643Z302.019° NW2025-07-02 05:05:39.643Z70.399° E42.808°2025-07-02 05:09:39.643Z111.059° ESE
5 mins2025-07-02 06:45:39.643Z258.986° W2025-07-02 06:47:39.643Z220.902° SW24.029°2025-07-02 06:50:39.643Z172.493° S
|